Regional Weather Roundup
Issued by NWS

Home | Current Version | Previous Version | Text Only | Print | Product List | Glossary Off
Versions: 1 2 3 4 5 6 7 8 9 10 11 12 13 14 15 16 17 18 19 20 21 22 23 24 25 26 27 28 29 30 31 32 33 34 35 36 37 38 39 40 41 42 43 44 45 46 47 48 49 50

350
ASUS45 KCYS 231610
RWRWY

WYOMING REGIONAL WEATHER ROUNDUP
NATIONAL WEATHER SERVICE CHEYENNE WY
900 AM MST THU FEB 23 2017

NOTE:  "FAIR" INDICATES FEW OR NO CLOUDS BELOW 12,000 FEET
WITH NO SIGNIFICANT WEATHER AND/OR OBSTRUCTIONS TO VISIBILITY.

WYZ001-231700-
YELLOWSTONE NATIONAL PARK

CITY           SKY/WX    TMP DP  RH WIND       PRES   REMARKS
LK YELLOWSTONE   N/A     17   8  67 NE8       29.64S WCI   7
W YELLOWSTONE  NOT AVBL

$$
WYZ002>013-054>058-071-098>099-231700-
NORTHERN WYOMING

CITY           SKY/WX    TMP DP  RH WIND       PRES   REMARKS
JACKSON        CLOUDY    19  16  86 NE16      29.60R WCI   5
CODY           FLURRIES  23  20  88 N23G30    29.76F WCI   7
GREYBULL       FAIR      31  22  69 NW16      29.70R WCI  20
WORLAND        CLOUDY    30  24  78 N8        29.71R WCI  22
SHERIDAN       CLOUDY    27  25  92 E8        29.85R WCI  19
BUFFALO        FLURRIES  26  22  84 N17G23    29.80R WCI  13
GILLETTE       CLOUDY    26  24  92 NE16      29.79S WCI  14
HULETT         LGT SNOW  28  27  93 MISG      29.81S VSB 1
NEWCASTLE      LGT SNOW  30  28  93 W5        29.75S WCI  25

$$
WYZ014>020-022>026-101>103-231700-
CENTRAL WYOMING

CITY           SKY/WX    TMP DP  RH WIND       PRES   REMARKS
BIG PINEY      CLOUDY    22  18  85 NW9       29.54R WCI  12
PINEDALE       CLOUDY    19  14  79 NW16      29.54R WCI   5
DUBOIS         LGT SNOW  21  19  93 SE9       29.58S WCI  11
LANDER         FOG       24  23  96 N15       29.64R VSB 1/4 WCI  11
RIVERTON       SNOW      24  22  91 N18G26    29.65R VSB 1/4 WCI  10
CASPER         SNOW      23  21  92 E24G33    29.66R VSB 1/4 WCI   7
DOUGLAS        HVY SNOW  23  21  92 E16       29.71R VSB 1/4 WCI  10

$$
WYZ021-027>030-104>119-231700-
SOUTHERN WYOMING

CITY           SKY/WX    TMP DP  RH WIND       PRES   REMARKS
EVANSTON       CLOUDY    17  13  84 SW9       29.60R WCI   6
FORT BRIDGER   LGT SNOW  20  20 100 W16       29.61R WCI   6
ROCK SPRINGS   SNOW      22  18  85 N16G28    29.53R VSB 1/2 WCI   8
DIXON          LGT SNOW  26  19  77 SW18      29.53R WCI  12
RAWLINS        SNOW      22  18  85 NE23      29.46R VSB 1/2 WCI   6
SARATOGA       CLOUDY    28  23  80 NW13G21   29.43R WCI  18
LARAMIE        LGT SNOW  22  17  81 E14       29.49R WCI   9
CHEYENNE       LGT SNOW  25  23  92 E14       29.54F VSB 3/4 WCI  13
TORRINGTON     HVY SNOW  25  23  92 E18       29.68F VSB 1/4 WCI  11
PINE BLUFFS    LGT RAIN  28  27  93 NE12G18   29.59F WCI  18

$$




USA.gov is the U.S. government's official web portal to all federal, state and local government web resources and services.